Location: Le Moustier
(44.1000°N, 6.5167°E)
Time: 16:34:54
(UTC+00:00)

Cosmos 1680 Rocket - Pass Details

Date: 13 December 2025
Orbit: 755 x 777 km, 74.1° (Epoch: 16 January)

Event Time Altitude Azimuth Distance (km) Brightness Sun altitude
Rises 17:53:05 0° 343° (NNW) 3,231 6.8 -20.2°
Reaches altitude 10° 17:55:33 10° 350° (N) 2,304 5.9 -20.6°
Maximum altitude 18:00:36 48° 64° (ENE) 997 3.6 -21.5°
Enters shadow 18:00:36 48° 64° (ENE) 997 3.6 -21.5°
